(394983) = 2009 BZ16

Discovered at Kitt Peak on 2009-01-17 by Spacewatch.

Orbit

Orbit type: Main Belt

Note: WebGL enabled browser required.

epoch2022-01-21.0
epoch JD2459600.5
perihelion date2021-07-20.47358
perihelion JD2459415.97358
argument of perihelion (°)10.34474
ascending node (°)92.80836
inclination (°)3.29131
eccentricity0.1208874
perihelion distance (AU)2.3016024
Tisserand w.r.t. Jupiter3.4
ΔV w.r.t. Earth (km/sec)9.6
semimajor axis (AU)2.6180974
mean anomaly (°)42.93226
mean daily motion (°/day)0.23266180
aphelion distance (AU)2.935
period (years)4.24
P-vector [x]-0.22725792
P-vector [y]0.88932479
P-vector [z]0.39680633
Q-vector [x]-0.97214482
Q-vector [y]-0.23116975
Q-vector [z]-0.03866527
absolute magnitude16.77
phase slope0.15
uncertainty0
referenceMPO 698942
observations used343
oppositions13
arc length (days)6225
first opposition used2005
last opposition used2022
residual rms (arc-secs)0.79
perturbers coarse indicatorM-v
perturbers precise indicator003Ek
first observation date used2005-04-04.0
last observation date used2022-04-20.0
computer namePan
JD of orbit computation2456819.417310
perihelion JD uncertainty (days)2.0929E-04
argument of perihelion uncertainty (°)1.2918E-04
ascending node uncertainty (°)1.2035E-04
inclination uncertainty (°)7.3953E-06
eccentricity uncertainty 1.0545E-07
perihelion distance uncertainty (AU)2.6964E-07
Minimum Orbit Intersection Distances (in AU)
for orbit epoch: 2459600.5, reference: E2022-B04
Mercury1.98758
Venus1.5827
Earth1.31851
Mars0.67749
Jupiter2.18832
Saturn6.75529
Uranus15.8807
Neptune27.1936

Observations

350 total observations over interval: 2005 04 04.14222 – 2022 05 26.204466
These data are available for download (format description).

Date (UT) J2000 RA J2000 Dec Magn Location Ref
2005 04 04.14222 10 40 03.56 +13 45 45.9 20.5 V 691 – Steward Observatory, Kitt Peak-Spacewatch MPS 272939
2005 04 04.15834 10 40 03.17 +13 45 46.7 20.5 V 691 – Steward Observatory, Kitt Peak-Spacewatch MPS 272939
2005 04 04.17398 10 40 02.75 +13 45 48.1 20.6 V 691 – Steward Observatory, Kitt Peak-Spacewatch MPS 272939
2007 11 03.14898 23 18 09.61 -09 24 19.0 20.7 V G96 – Mt. Lemmon Survey MPS 272939
2007 11 03.15943 23 18 09.57 -09 24 18.6 20.8 V G96 – Mt. Lemmon Survey MPS 272939
2007 11 03.16996 23 18 09.50 -09 24 17.8 21.1 V G96 – Mt. Lemmon Survey MPS 272939
2007 11 03.18035 23 18 09.39 -09 24 17.1 21.4 V G96 – Mt. Lemmon Survey MPS 272939
2008 11 24.39095 09 05 21.58 +17 56 16.8 21.7 V G96 – Mt. Lemmon Survey MPS 272939
2008 11 24.39770 09 05 21.98 +17 56 16.2 21.8 V G96 – Mt. Lemmon Survey MPS 272939
2008 11 24.40443 09 05 22.20 +17 56 16.1 22.2 V G96 – Mt. Lemmon Survey MPS 272939
2008 11 24.41116 09 05 22.45 +17 56 16.4 22.5 V G96 – Mt. Lemmon Survey MPS 272939
2008 12 04.42198 09 10 55.99 +17 51 14.8 20.4 V G96 – Mt. Lemmon Survey MPS 272939
2008 12 04.43315 09 10 56.24 +17 51 15.2 20.8 V G96 – Mt. Lemmon Survey MPS 272939
2008 12 04.44432 09 10 56.49 +17 51 14.9 20.8 V G96 – Mt. Lemmon Survey MPS 272939
2008 12 04.45542 09 10 56.74 +17 51 15.0 22.0 V G96 – Mt. Lemmon Survey MPS 272939
2008 12 29.47488 09 11 40.14 +18 42 29.4 20.3 V 691 – Steward Observatory, Kitt Peak-Spacewatch MPS 272939
2008 12 29.49323 09 11 39.74 +18 42 33.3 20.3 V 691 – Steward Observatory, Kitt Peak-Spacewatch MPS 272939
2008 12 29.51134 09 11 39.22 +18 42 37.7 20.6 V 691 – Steward Observatory, Kitt Peak-Spacewatch MPS 272939
2009 01 08.44522 09 06 30.13 +19 27 06.4 20.2 V 691 – Steward Observatory, Kitt Peak-Spacewatch MPS 272939
2009 01 08.46680 09 06 29.23 +19 27 12.7 20.1 V 691 – Steward Observatory, Kitt Peak-Spacewatch MPS 272939
2009 01 08.49208 09 06 28.13 +19 27 19.6 19.9 V 691 – Steward Observatory, Kitt Peak-Spacewatch MPS 272939
2009 01 17.29141 08 59 46.90 +20 13 33.1   691 – Steward Observatory, Kitt Peak-Spacewatch MPS 272939
2009 01 17.30982 08 59 45.92 +20 13 39.4   691 – Steward Observatory, Kitt Peak-Spacewatch MPS 272939
2009 01 17.32797 08 59 44.94 +20 13 45.4   691 – Steward Observatory, Kitt Peak-Spacewatch MPS 272939
2009 01 17.34741 08 59 43.90 +20 13 50.8 19.9 V 703 – Catalina Sky Survey MPS 272939
2009 01 17.35466 08 59 43.51 +20 13 52.7 19.5 V 703 – Catalina Sky Survey MPS 272940
2009 01 17.36199 08 59 43.08 +20 13 56.1 19.5 V 703 – Catalina Sky Survey MPS 272940
2009 01 17.36926 08 59 42.79 +20 13 57.9 19.6 V 703 – Catalina Sky Survey MPS 272940
2009 01 20.34352 08 57 06.39 +20 30 14.3 19.5 R G92 – Jarnac Observatory, Vail MPS 272940
2009 01 20.36013 08 57 05.44 +20 30 20.1 19.5 R G92 – Jarnac Observatory, Vail MPS 272940
2009 01 20.37672 08 57 04.48 +20 30 24.7 19.5 R G92 – Jarnac Observatory, Vail MPS 272940
2009 01 28.17794 08 49 45.84 +21 12 27.7 19.3 V 703 – Catalina Sky Survey MPS 272940
2009 01 28.18439 08 49 45.48 +21 12 30.0 19.2 V 703 – Catalina Sky Survey MPS 272940
2009 01 28.19086 08 49 45.12 +21 12 32.3 19.5 V 703 – Catalina Sky Survey MPS 272940
2009 01 28.19726 08 49 44.68 +21 12 33.4 19.1 V 703 – Catalina Sky Survey MPS 272940
2009 01 30.27432 08 47 44.57 +21 23 17.8 18.9   704 – Lincoln Laboratory ETS, New Mexico MPS 272940
2009 01 30.28665 08 47 43.83 +21 23 21.9 19.6   704 – Lincoln Laboratory ETS, New Mexico MPS 272940
2009 01 30.29913 08 47 43.03 +21 23 26.4 19.5   704 – Lincoln Laboratory ETS, New Mexico MPS 272940
2009 01 30.31166 08 47 42.32 +21 23 29.8 19.4   704 – Lincoln Laboratory ETS, New Mexico MPS 272940
2009 01 30.32394 08 47 41.53 +21 23 32.7 19.5   704 – Lincoln Laboratory ETS, New Mexico MPS 272940
2009 01 31.25974 08 46 47.72 +21 28 16.4 18.9   704 – Lincoln Laboratory ETS, New Mexico MPS 272940
2009 01 31.28352 08 46 46.20 +21 28 23.9 19.5   704 – Lincoln Laboratory ETS, New Mexico MPS 272940
2009 01 31.29552 08 46 45.56 +21 28 27.8 19.5   704 – Lincoln Laboratory ETS, New Mexico MPS 272940
2009 01 31.30731 08 46 44.78 +21 28 30.3 19.5   704 – Lincoln Laboratory ETS, New Mexico MPS 272940
2009 02 05.21484 08 42 05.65 +21 51 57.9 19.2 V 703 – Catalina Sky Survey MPS 272940
2009 02 05.22313 08 42 05.29 +21 52 00.1 19.4 V 703 – Catalina Sky Survey MPS 272940
2009 02 05.23143 08 42 04.75 +21 52 02.3 19.7 V 703 – Catalina Sky Survey MPS 272940
2009 02 05.23968 08 42 04.39 +21 52 06.2 19.2 V 703 – Catalina Sky Survey MPS 272940
2009 02 14.19316 08 34 17.47 +22 27 51.7 19.7 V 691 – Steward Observatory, Kitt Peak-Spacewatch MPS 276597
2009 02 14.20666 08 34 16.79 +22 27 54.5 19.7 V 691 – Steward Observatory, Kitt Peak-Spacewatch MPS 276597
2009 02 14.21990 08 34 16.15 +22 27 57.3 19.7 V 691 – Steward Observatory, Kitt Peak-Spacewatch MPS 276597
2009 02 22.22800 08 28 40.40 +22 50 49.7 19.8   704 – Lincoln Laboratory ETS, New Mexico MPS 277683
2009 02 22.23972 08 28 39.95 +22 50 51.8 20.0   704 – Lincoln Laboratory ETS, New Mexico MPS 277683
2009 02 22.25146 08 28 39.51 +22 50 53.7 20.1   704 – Lincoln Laboratory ETS, New Mexico MPS 277683
2009 02 22.26338 08 28 39.12 +22 50 55.0 20.1   704 – Lincoln Laboratory ETS, New Mexico MPS 277683
2010 06 07.376941 16 02 13.809 -18 27 14.13 20.39 r F51 – Pan-STARRS 1, Haleakala MPS 337431
2010 06 07.388410 16 02 13.176 -18 27 13.11 20.49 r F51 – Pan-STARRS 1, Haleakala MPS 337431
2011 07 27.47959 22 37 46.712 -12 47 36.78 21.5 w F51 – Pan-STARRS 1, Haleakala MPS 387257
2011 07 27.49431 22 37 46.243 -12 47 40.85 21.6 w F51 – Pan-STARRS 1, Haleakala MPS 387257
2011 07 27.52372 22 37 45.347 -12 47 48.71 21.4 w F51 – Pan-STARRS 1, Haleakala MPS 387257
2012 12 10.37376 06 28 27.39 +22 53 58.1 19.3 R 926 – Tenagra II Observatory, Nogales MPS 446057
2012 12 10.38762 06 28 26.64 +22 53 59.3 19.3 R 926 – Tenagra II Observatory, Nogales MPS 446057
2012 12 10.40158 06 28 25.78 +22 54 00.3 19.6 R 926 – Tenagra II Observatory, Nogales MPS 446057
2014 03 31.35837 15 10 30.46 -13 34 06.7   691 – Steward Observatory, Kitt Peak-Spacewatch MPS 508587
2014 03 31.37611 15 10 29.93 -13 34 05.8   691 – Steward Observatory, Kitt Peak-Spacewatch MPS 508587
2014 03 31.39385 15 10 29.53 -13 34 02.8   691 – Steward Observatory, Kitt Peak-Spacewatch MPS 508587
2014 04 07.39706 15 06 50.03 -13 16 10.1 20.7 V 691 – Steward Observatory, Kitt Peak-Spacewatch MPS 509812
2014 04 07.41478 15 06 49.31 -13 16 07.0 21.0 V 691 – Steward Observatory, Kitt Peak-Spacewatch MPS 509812
2014 04 07.43249 15 06 48.70 -13 16 05.4 20.5 V 691 – Steward Observatory, Kitt Peak-Spacewatch MPS 509812
2014 04 26.34300 14 52 11.45 -12 14 19.7 20.5 V W84 – Cerro Tololo-DECam MPS 790374
2014 04 26.34619 14 52 11.28 -12 14 19.0   W84 – Cerro Tololo-DECam MPS 790374
2014 04 26.34937 14 52 11.10 -12 14 18.3   W84 – Cerro Tololo-DECam MPS 790374
2014 04 26.35253 14 52 10.93 -12 14 17.6   W84 – Cerro Tololo-DECam MPS 790374
2014 04 26.35570 14 52 10.76 -12 14 16.9   W84 – Cerro Tololo-DECam MPS 790374
2014 04 30.22429 14 48 40.98 -12 00 42.9 20.4 V W84 – Cerro Tololo-DECam MPS 790374
2014 04 30.26027 14 48 38.94 -12 00 35.3   W84 – Cerro Tololo-DECam MPS 790374
2014 04 30.29562 14 48 36.94 -12 00 27.8   W84 – Cerro Tololo-DECam MPS 790374
2014 05 02.09322 14 46 58.42 -11 54 18.1 19.9 R J04 – ESA Optical Ground Station, Tenerife MPS 513862
2014 05 02.11174 14 46 57.35 -11 54 13.8 20.0 R J04 – ESA Optical Ground Station, Tenerife MPS 513862
2014 05 02.12331 14 46 56.69 -11 54 11.3 19.7 R J04 – ESA Optical Ground Station, Tenerife MPS 513862
2014 05 02.13836 14 46 55.86 -11 54 08.3 19.3 R J04 – ESA Optical Ground Station, Tenerife MPS 513862
2014 05 21.34988 14 30 23.106 -10 57 06.46 20.8 w F51 – Pan-STARRS 1, Haleakala MPS 516427
2014 05 21.36336 14 30 22.472 -10 57 04.89 20.9 w F51 – Pan-STARRS 1, Haleakala MPS 516427
2014 05 21.37684 14 30 21.838 -10 57 02.94 20.9 w F51 – Pan-STARRS 1, Haleakala MPS 516427
2014 05 27.33920 14 26 11.567 -10 45 27.90 20.9 w F51 – Pan-STARRS 1, Haleakala MPS 517884
2014 05 27.36139 14 26 10.668 -10 45 25.72 21.0 w F51 – Pan-STARRS 1, Haleakala MPS 517884
2014 05 27.37249 14 26 10.226 -10 45 24.65 21.0 w F51 – Pan-STARRS 1, Haleakala MPS 517884
